Location: ??
(35.5672°N, 139.6509°E)
Time: 12:20:43
(UTC+00:00)

Aureole 3 - Pass Details

Date: 03 August 2024
Orbit: 375 x 1118 km, 82.5° (Epoch: 08 September)

Event Time Altitude Azimuth Distance (km) Brightness Sun altitude
Rises 17:00:25 0° 3° (N) 2,801 7.7 -28.5°
Reaches altitude 10° 17:03:02 10° 15° (NNE) 1,770 6.7 -28.2°
Enters shadow 17:05:51 26° 61° (ENE) 955 5.1 -27.9°
